Regional Weather Roundup
Issued by NWS

Home | Current Version | Previous Version | Text Only | Print | Product List | Glossary On
Versions: 1 2 3 4 5 6 7 8 9 10 11 12 13 14 15 16 17 18 19 20 21 22 23 24 25 26 27 28 29 30 31 32 33 34 35 36 37 38 39 40 41 42 43 44 45 46 47 48 49 50
000
ASUS43 KDTX 300301
RWRMI
MICHIGAN HOURLY REGIONAL WEATHER ROUNDUP
NATIONAL WEATHER SERVICE DETROIT/PONTIAC MI
1100 PM EDT WED OCT 29 2014

NOTE: "FAIR" INDICATES FEW OR NO CLOUDS BELOW 12,000 FEET WITH NO
SIGNIFICANT WEATHER AND/OR OBSTRUCTION TO VISIBILITY.

MIZ047>049-052>055-059>063-066>070-074>076-081>083-300400-
SOUTHEAST LOWER MICHIGAN

CITY           SKY/WX    TMP DP  RH WIND       PRES   REMARKS
ADRIAN         CLOUDY    42  38  85 NW6       30.10S
ALMA           CLEAR     35  33  91 W3        30.09S
ANN ARBOR      CLOUDY    43  35  73 W6        30.08R
BAD AXE        CLOUDY    43  37  80 NW9       30.06R
CARO           MOCLDY    43  37  78 NW3       30.07R
DETROIT CITY   CLOUDY    48  35  60 W7        30.07S
DETROIT        CLOUDY    45  36  70 W7        30.08S
FLINT          CLOUDY    46  36  68 NW8       30.09R
GROSSE ILE     CLOUDY    45  37  76 W6        30.06S
HILLSDALE      CLOUDY    42  40  93 W5        30.09S
HOWELL         CLOUDY    42  36  80 NW7       30.08R

CITY           SKY/WX    TMP DP  RH WIND       PRES   REMARKS
JACKSON        CLOUDY    42  37  82 W5        30.09S
LAMBERTVILLE   CLOUDY    43  37  81 W3        30.10S
LANSING        CLEAR     39  33  79 NW6       30.10R WCI  35
LAPEER         CLOUDY    43  34  71 NW7       30.06S
MASON          CLOUDY    42  37  81 W5        30.09R
MONROE         CLOUDY    39  37  93 W5        30.07S
MT. CLEMENS    CLOUDY    46  37  70 NW9       30.04R
PONTIAC        CLOUDY    44  35  70 NW9       30.06R
PORT HOPE        N/A     45  36  70 NW6       30.03R
PORT HURON     CLOUDY    45  37  76 W6        30.05R
TRI CITIES     PTCLDY    41  34  76 W7        30.09R
TROY           CLOUDY    47  34  60 W10       30.08R
SAGINAW HB     CLOUDY    43  36  75 NW5       30.08R
$$
MIZ043>046-050>051-056>058-064>065-071>073-077>080-300400-
SOUTHWEST LOWER MICHIGAN

CITY           SKY/WX    TMP DP  RH WIND       PRES   REMARKS
BATTLE CREEK   MOCLDY    41  34  76 NW5       30.11R
BENTON HARBOR  CLOUDY    46  33  60 VRB5      30.12S
BIG RAPIDS     CLEAR     34  34 100 CALM      30.08S
COLDWATER      CLOUDY    43  39  86 W5        30.11R
FREMONT        CLOUDY    40  36  86 CALM      30.08F
HOLLAND        CLOUDY    47  37  68 CALM      30.11S
GRAND RAPIDS   PTCLDY    40  36  86 SW3       30.11R
IONIA          FAIR      38  34  85 CALM      30.09S
KALAMAZOO      CLOUDY    44  36  73 NW5       30.12R
LUDINGTON      CLOUDY    42  38  86 CALM      30.10R
MARSHALL       PTCLDY    38  34  85 W9        30.10R WCI  32
MOUNT PLEASANT CLEAR     36  33  88 CALM      30.08S
MUSKEGON       MOCLDY    45  37  73 CALM      30.10F
SOUTH HAVEN    CLOUDY    49  36  62 NW5       30.11S
$$
MIZ016>042-300400-
NORTHERN LOWER MICHIGAN

CITY           SKY/WX    TMP DP  RH WIND       PRES   REMARKS
ALPENA         CLOUDY    39  32  76 NW9       30.05R WCI  33
BEAVER ISLAND  CLEAR     39  33  78 N5        30.07S
BELLAIRE       CLOUDY    42  34  74 CALM      30.08S
CADILLAC       CLOUDY    37  35  91 CALM      30.05F
CHARLEVOIX     PTCLDY    40  33  76 N7        30.10R
FRANKFORT      CLOUDY    43  39  83 CALM      30.08S
GAYLORD        CLEAR     37  32  82 VRB3      30.05R
GRAYLING       MOCLDY    37  35  91 W3        30.06S
HARBOR SPRINGS CLEAR     38  31  77 NW5       30.07R WCI  34
HOUGHTON LAKE  CLEAR     36  35  96 NW3       30.06S
MANISTEE       CLOUDY    41  37  87 CALM      30.09S
OSCODA         CLOUDY    42  34  72 NW9       30.04R
PELLSTON       CLOUDY    40  32  73 NW9       30.07R WCI  34
ROGERS CITY    CLOUDY    39  34  81 CALM      30.06R
TRAVERSE CITY  CLOUDY    45  36  70 N3        30.07S
$$
MIZ007>008-015-300400-
EASTERN UPPER MICHIGAN

CITY           SKY/WX    TMP DP  RH WIND       PRES   REMARKS
KINROSS        PTCLDY    34  34 100 W7        30.03S WCI  28
MACKINAC ISLAN MOCLDY    37  33  85 W7        30.06R WCI  31
NEWBERRY       CLOUDY    34  32  90 CALM      30.04F
S. S. MARIE    LGT RAIN  38  33  82 NW5       30.03R WCI  34
$$
MIZ004>006-011>014-085-300400-
CENTRAL UPPER MICHIGAN

CITY           SKY/WX    TMP DP  RH WIND       PRES   REMARKS
MANISTIQUE     PTCLDY    31  31  97 NW3       30.07R
ESCANABA       CLEAR     32  28  86 CALM      30.08R
MENOMINEE      CLOUDY    45  34  65 N6        30.08R
SAWYER-GWINN   LGT RAIN  36  33  89 CALM      30.06S
$$
MIZ001>003-009>011-084-300400-
WESTERN UPPER MICHIGAN

CITY           SKY/WX    TMP DP  RH WIND       PRES   REMARKS
IRON MOUNTAIN  CLOUDY    39  33  79 W5        30.07R
HOUGHTON       CLOUDY    39  33  79 S3        30.04S
COPPER HARBOR    N/A     41  35  79 S3        30.05R
IRONWOOD       CLOUDY    37  34  87 W7        30.05S WCI  32
$$

ABBREVIATIONS USED IN REMARKS
   TC - TEMPERATURE IN CELSIUS
  WCI - WIND CHILL INDEX
   HX - HEAT INDEX
  VSB - VISIBILITY




USA.gov is the U.S. government's official web portal to all federal, state and local government web resources and services.